Location: Champseau
(45.8333°N, 1.7667°E)
Time: 05:35:38
(UTC+00:00)

Envisat - Pass Details

Date: 04 October 2021
Orbit: 764 x 766 km, 98.2° (Epoch: 23 October)

Event Time Altitude Azimuth Distance (km) Brightness Sun altitude
Rises 05:01:28 0° 14° (NNE) 3,242 6.5 -10.2°
Reaches altitude 10° 05:03:47 10° 16° (NNE) 2,311 5.8 -9.8°
Maximum altitude 05:08:53 77° 103° (ESE) 789 3.2 -8.9°
Drops below altitude 10° 05:13:57 10° 189° (S) 2,294 5.4 -8.0°
Sets 05:16:14 0° 191° (S) 3,215 6.1 -7.6°
